Wind_Speed
19 20 20 21 23 25 27 28 30 31 32 35 37 38 36 36 39 40 40 41 42 42 43 45 45 45 44 44 44 44 44 45 45 44 42 41 41 41 41 40 38 39 39 39
19 19 20 21 22 24 26 28 29 31 32 34 35 36 36 36 38 39 39 40 43 43 42 43 44 45 45 45 45 45 46 46 47 45 44 43 43 43 42 41 41 40 40 40
20 20 20 21 22 23 24 25 26 28 30 30 32 33 34 34 35 38 40 41 41 42 43 43 44 45 45 46 46 46 46 47 47 47 46 45 44 44 44 43 43 43 42 41
20 19 19 19 20 21 22 21 22 24 26 26 27 31 32 33 33 35 38 39 41 42 43 44 44 43 43 44 46 46 46 47 47 47 48 47 45 44 44 45 45 44 44 44
19 18 18 18 18 17 18 19 19 20 22 25 25 28 28 30 32 33 35 37 40 41 42 44 44 44 44 43 44 46 47 48 48 48 48 48 47 45 45 46 46 46 45 44
18 18 17 16 15 16 17 17 17 19 20 22 24 26 26 25 27 29 32 35 38 39 40 43 44 44 44 44 45 46 48 48 48 48 48 47 48 49 47 47 46 46 45 44
17 16 15 14 13 14 15 15 16 18 19 20 21 24 23 23 24 27 29 32 35 37 38 39 42 44 44 45 45 46 47 48 48 49 50 50 49 50 50 49 48 47 45 45
17 16 15 15 14 14 14 15 17 18 20 20 21 22 20 23 25 27 29 31 33 35 36 37 39 41 43 44 44 46 46 47 48 49 51 50 50 50 49 49 49 48 47 45
17 15 15 15 15 15 16 16 17 19 20 21 21 21 20 21 25 27 28 30 32 34 35 35 37 39 41 42 43 44 46 47 47 48 49 50 51 50 49 48 48 48 47 45
17 16 15 14 15 15 16 17 18 19 21 22 22 21 20 21 24 25 25 27 29 31 33 34 36 38 40 42 42 42 43 44 46 48 49 49 50 49 49 48 46 47 47 47
17 17 16 15 15 16 16 16 18 20 21 23 22 20 21 22 23 24 24 27 29 30 32 34 35 36 37 39 40 41 42 43 45 46 48 49 49 48 47 47 47 47 47 46
18 18 17 16 16 17 17 18 19 20 22 23 24 21 20 21 22 24 25 26 28 29 30 32 33 35 37 38 39 41 41 42 44 45 47 48 48 48 47 47 46 47 47 46
19 19 19 18 18 18 18 19 20 21 22 23 24 22 21 22 23 25 27 27 28 28 29 30 32 33 35 36 37 39 40 41 42 44 46 47 46 46 47 46 46 46 46 45
20 20 21 21 20 20 20 21 21 22 23 23 23 23 22 23 23 24 25 25 26 27 29 30 30 32 33 34 35 37 38 39 41 42 42 43 45 46 46 45 45 45 46 45
20 20 21 21 21 21 21 20 21 23 23 24 24 24 24 24 23 23 24 24 24 25 26 28 28 30 32 33 35 35 36 36 38 39 40 41 42 44 45 45 45 43 43 43
20 21 21 21 21 22 21 21 22 22 22 24 25 25 26 25 24 24 24 24 24 25 26 27 28 29 30 32 33 34 34 35 35 37 38 39 40 40 41 42 42 41 41 41
21 22 22 21 22 22 21 21 23 24 24 24 25 25 26 25 25 25 24 24 24 24 24 26 28 29 30 31 32 33 34 35 36 36 36 37 37 37 38 40 41 41 41 40
21 22 22 22 23 22 20 22 23 24 24 25 25 25 25 25 25 25 25 25 25 25 24 24 25 27 28 30 31 32 32 33 34 35 35 34 35 36 37 39 40 40 40 39
22 22 23 23 24 23 21 23 23 24 23 24 25 25 26 26 26 26 26 26 26 27 27 26 26 26 27 28 29 31 32 33 34 34 34 35 34 35 35 37 37 37 38 39
23 24 24 25 25 25 24 24 24 25 24 24 25 24 24 25 25 25 26 27 27 28 29 29 28 28 28 28 29 29 30 31 32 33 33 34 35 33 33 33 34 35 36 38
24 24 24 25 26 25 25 25 25 25 25 25 25 24 24 24 24 25 25 26 27 27 27 27 27 27 28 28 28 28 29 30 31 31 31 32 32 32 32 32 33 34 35 36
25 26 26 26 25 25 25 25 25 26 26 25 26 26 27 27 26 26 26 26 26 26 26 27 27 27 27 27 27 28 29 29 30 30 30 30 30 31 31 31 32 33 35 36
25 25 26 26 25 25 26 26 26 26 26 26 26 26 27 28 27 27 27 27 27 27 27 27 28 28 28 28 28 28 28 28 28 28 28 29 29 30 31 31 31 32 33 34
26 27 27 26 25 25 26 26 27 27 26 26 26 27 27 27 27 27 28 29 29 28 28 28 28 29 29 29 29 28 28 27 27 27 28 29 30 30 31 31 31 31 31 31
27 28 27 27 26 26 25 26 27 27 27 27 27 28 27 27 27 27 27 28 29 29 28 28 28 27 28 29 30 29 29 28 28 28 28 29 29 29 30 30 30 31 31 31
28 28 28 27 27 27 26 27 28 28 28 28 28 28 28 27 28 28 28 28 28 28 28 28 28 28 29 29 30 30 30 29 29 29 29 29 29 29 29 30 30 30 30 30
Wind_Direction
291 285 281 277 274 274 272 268 263 259 257 255 252 250 248 247 246 244 242 242 243 244 244 242 242 242 243 245 245 245 244 243 243 244 245 245 246 247 249 250 251 252 254 257
295 289 286 279 275 273 272 269 265 259 258 257 255 251 249 247 245 243 242 243 243 243 242 242 242 243 243 244 245 245 245 244 244 245 246 245 247 249 251 252 253 253 254 257
297 294 290 286 284 278 274 273 268 263 261 261 259 253 250 247 245 243 243 244 244 242 243 241 242 242 243 244 245 246 247 246 246 245 245 246 248 250 251 252 254 255 256 258
298 297 293 290 286 283 276 274 270 269 267 261 262 260 252 249 246 246 245 246 245 245 244 242 242 243 242 243 245 246 246 246 246 247 247 249 250 252 253 254 255 258 260 260
306 303 296 293 290 286 281 278 274 273 271 265 263 263 257 252 251 248 246 248 246 246 244 243 242 243 243 244 246 247 246 246 247 247 248 249 250 251 253 254 255 257 260 260
308 305 301 296 291 287 284 279 273 272 272 266 265 264 262 256 254 251 247 248 247 246 245 244 243 244 245 245 247 247 247 247 248 248 249 251 252 252 253 254 256 258 259 260
310 306 301 298 292 289 288 281 277 278 275 271 270 266 266 260 258 254 251 250 250 249 247 245 244 246 246 246 247 247 247 248 249 250 250 253 253 253 254 256 257 258 259 258
314 308 301 296 293 292 291 286 280 282 280 279 272 270 272 263 260 258 258 255 253 252 250 248 247 248 248 248 249 249 249 248 248 250 251 253 255 255 256 258 258 258 259 258
316 312 305 299 294 294 294 288 282 283 285 286 277 276 272 267 264 261 261 259 256 254 252 250 250 250 249 249 249 249 250 250 250 251 252 253 254 256 257 259 260 259 259 260
316 311 306 299 292 292 294 292 288 286 286 287 285 282 281 275 271 265 261 261 257 255 253 251 251 251 251 249 249 249 251 252 254 254 255 256 255 256 256 258 260 261 261 260
314 310 306 298 293 292 293 293 293 292 286 286 288 287 287 280 276 270 267 264 260 257 256 252 252 252 251 250 249 250 251 253 255 256 256 257 257 257 258 259 260 261 262 261
310 309 303 299 294 291 291 292 292 292 288 286 287 292 290 283 280 273 270 268 262 259 258 255 254 253 253 252 252 252 253 254 256 256 257 258 259 259 259 259 260 261 261 260
305 305 304 299 296 294 291 291 290 290 288 287 287 289 290 289 283 277 274 272 266 263 262 261 257 256 255 254 254 254 255 256 257 257 257 258 258 259 260 260 260 260 260 260
305 302 301 298 298 296 293 292 292 290 287 288 289 290 289 290 288 281 277 273 269 266 265 264 261 258 256 255 256 257 257 258 259 259 259 260 259 258 258 259 260 260 260 260
307 304 301 296 291 293 292 291 291 289 288 288 289 289 292 293 291 286 281 278 275 271 268 263 262 260 258 257 257 258 258 260 260 260 261 261 260 259 258 257 258 259 258 258
308 307 305 300 293 290 289 288 288 289 290 291 290 290 290 291 290 289 285 279 276 276 272 267 265 263 262 260 258 259 260 261 262 262 262 261 261 260 258 256 256 257 257 258
309 309 308 305 300 293 289 290 288 287 289 292 292 292 290 287 288 289 286 283 278 279 274 272 271 268 267 264 261 260 263 263 263 263 262 261 262 261 258 257 258 257 256 255
305 308 309 308 306 299 297 293 291 291 291 291 291 291 290 288 288 287 285 284 280 280 278 275 273 272 269 266 264 263 265 265 265 264 262 262 262 261 260 259 258 257 255 255
300 303 304 305 305 304 301 299 297 295 295 295 294 291 289 287 287 285 284 284 282 281 280 278 277 274 271 268 267 266 266 266 266 265 263 263 263 263 262 260 258 256 255 254
296 298 300 301 302 304 303 300 298 296 295 294 295 295 293 289 287 285 283 283 283 281 281 280 278 275 272 271 271 271 269 268 267 266 265 264 264 263 260 259 257 255 254 255
296 297 298 299 301 303 304 301 300 297 296 293 292 292 293 291 289 288 286 285 286 283 280 277 277 275 273 272 273 273 272 270 269 267 265 265 263 261 261 261 259 257 255 255
297 297 297 296 299 302 303 301 298 296 295 292 292 291 290 290 289 287 287 288 286 283 280 276 275 274 274 275 275 274 274 273 271 268 267 265 262 261 262 262 261 260 258 257
296 295 294 294 297 298 297 299 297 295 294 293 292 291 290 291 290 289 288 287 285 283 280 278 275 275 275 275 274 275 274 273 271 269 267 265 263 263 262 263 264 262 261 259
294 293 291 292 295 295 296 296 296 295 293 292 292 292 293 294 293 292 289 288 287 283 280 279 278 276 275 275 274 275 274 272 270 268 266 265 265 264 264 264 264 263 261 260
296 294 292 292 291 291 292 294 295 294 292 292 292 293 294 295 294 293 291 289 288 285 282 279 277 275 276 275 275 274 274 272 270 268 268 268 267 266 265 264 264 263 261 259
295 295 293 292 290 289 290 291 292 293 291 291 292 292 295 295 295 294 293 291 289 286 283 280 278 277 276 276 275 274 274 272 270 270 269 269 268 267 266 266 264 262 260 258
Height
5669 5668 5667 5666 5665 5665 5664 5664 5664 5666 5666 5666 5668 5672 5676 5678 5681 5685 5691 5695 5700 5704 5709 5714 5718 5722 5726 5729 5732 5735 5738 5741 5744 5747 5749 5751 5754 5756 5759 5761 5763 5764 5765 5767
5666 5664 5663 5660 5659 5658 5658 5657 5658 5659 5659 5659 5661 5663 5667 5669 5673 5677 5681 5685 5689 5694 5699 5703 5708 5712 5716 5719 5723 5726 5729 5732 5735 5738 5741 5743 5745 5748 5750 5752 5753 5755 5757 5758
5662 5661 5657 5655 5654 5653 5653 5652 5652 5652 5653 5653 5653 5656 5659 5662 5664 5668 5672 5675 5679 5684 5689 5694 5698 5702 5706 5710 5713 5717 5720 5723 5726 5729 5731 5734 5736 5738 5741 5743 5744 5746 5747 5748
5658 5656 5654 5651 5650 5648 5648 5648 5647 5646 5646 5647 5648 5648 5653 5654 5657 5660 5663 5666 5669 5674 5679 5683 5688 5693 5697 5700 5704 5707 5710 5714 5717 5719 5722 5724 5727 5729 5732 5733 5735 5736 5737 5738
5654 5652 5650 5648 5647 5645 5644 5644 5643 5642 5642 5642 5643 5642 5646 5647 5649 5652 5655 5657 5660 5663 5667 5672 5677 5682 5687 5691 5695 5697 5700 5703 5706 5708 5711 5713 5716 5719 5721 5723 5725 5726 5727 5728
5651 5649 5646 5645 5644 5642 5641 5641 5640 5639 5638 5638 5639 5638 5640 5642 5643 5645 5647 5649 5651 5654 5657 5662 5667 5671 5677 5681 5685 5687 5689 5692 5695 5698 5700 5703 5706 5708 5710 5712 5714 5716 5717 5718
5649 5647 5644 5642 5641 5640 5639 5638 5637 5635 5634 5635 5635 5633 5635 5637 5637 5638 5640 5641 5642 5645 5648 5652 5657 5661 5665 5670 5673 5676 5679 5682 5685 5687 5690 5692 5695 5697 5699 5701 5703 5705 5707 5708
5645 5644 5642 5640 5639 5638 5636 5635 5634 5633 5631 5631 5630 5629 5632 5632 5632 5631 5632 5633 5634 5636 5639 5643 5647 5651 5655 5658 5662 5665 5668 5670 5673 5676 5678 5681 5684 5686 5689 5690 5692 5694 5696 5698
5643 5641 5640 5638 5636 5635 5633 5632 5631 5630 5627 5626 5625 5626 5627 5627 5626 5625 5626 5625 5626 5628 5630 5634 5637 5641 5644 5647 5651 5653 5656 5659 5661 5664 5666 5669 5672 5675 5677 5679 5681 5682 5684 5686
5640 5638 5637 5635 5634 5632 5631 5630 5628 5626 5623 5621 5621 5621 5623 5622 5621 5620 5619 5619 5619 5621 5623 5625 5628 5631 5633 5636 5639 5642 5644 5647 5650 5652 5655 5657 5660 5662 5665 5668 5669 5671 5673 5675
5638 5636 5634 5632 5631 5629 5629 5627 5625 5623 5620 5618 5616 5620 5618 5617 5615 5614 5613 5613 5613 5614 5616 5617 5619 5621 5624 5626 5629 5631 5633 5635 5638 5640 5643 5645 5648 5650 5653 5656 5658 5659 5661 5663
5635 5633 5631 5630 5628 5626 5625 5624 5622 5621 5618 5615 5613 5616 5613 5611 5609 5608 5607 5606 5606 5607 5607 5608 5610 5612 5614 5616 5618 5621 5623 5625 5627 5629 5631 5633 5636 5638 5641 5643 5646 5647 5649 5652
5631 5629 5627 5626 5627 5624 5622 5620 5618 5616 5614 5611 5609 5612 5608 5606 5603 5602 5600 5599 5599 5599 5600 5600 5601 5603 5604 5606 5608 5611 5613 5614 5616 5618 5620 5622 5624 5626 5629 5631 5633 5635 5638 5640
5627 5625 5624 5623 5621 5619 5617 5616 5614 5611 5609 5607 5606 5605 5604 5600 5598 5596 5594 5593 5592 5593 5593 5593 5593 5595 5596 5598 5599 5601 5602 5604 5605 5607 5609 5611 5612 5614 5617 5619 5621 5624 5626 5628
5623 5621 5619 5617 5615 5614 5613 5611 5609 5607 5605 5603 5602 5600 5598 5595 5593 5591 5589 5587 5586 5586 5587 5587 5587 5587 5588 5589 5590 5592 5593 5594 5595 5597 5598 5599 5601 5603 5605 5608 5610 5612 5614 5617
5619 5617 5615 5613 5611 5608 5607 5607 5604 5602 5600 5598 5596 5595 5593 5589 5587 5585 5583 5582 5581 5580 5580 5580 5580 5580 5581 5581 5582 5584 5585 5585 5586 5587 5588 5589 5590 5592 5594 5596 5599 5601 5603 5606
5615 5613 5610 5608 5606 5603 5603 5602 5599 5597 5596 5593 5591 5590 5586 5584 5582 5580 5578 5576 5575 5574 5574 5573 5573 5573 5573 5574 5574 5576 5576 5577 5577 5578 5579 5580 5581 5582 5584 5586 5588 5590 5592 5594
5611 5608 5605 5603 5601 5598 5601 5596 5594 5591 5590 5587 5585 5583 5580 5577 5576 5574 5572 5571 5570 5569 5568 5567 5567 5566 5566 5566 5567 5567 5568 5568 5569 5569 5570 5570 5571 5573 5574 5575 5577 5579 5581 5584
5606 5603 5600 5597 5594 5593 5594 5591 5588 5585 5584 5581 5579 5577 5574 5571 5570 5569 5567 5565 5564 5563 5562 5561 5560 5559 5559 5559 5559 5559 5560 5560 5560 5560 5561 5562 5562 5563 5564 5565 5567 5569 5571 5574
5601 5598 5596 5592 5588 5587 5589 5585 5581 5580 5578 5576 5573 5570 5568 5565 5564 5564 5561 5558 5557 5556 5554 5553 5553 5552 5552 5551 5551 5551 5551 5551 5551 5551 5552 5552 5553 5554 5555 5556 5557 5559 5561 5563
5595 5592 5590 5586 5583 5581 5582 5578 5575 5574 5573 5569 5566 5564 5562 5560 5558 5556 5553 5551 5550 5548 5547 5546 5545 5545 5544 5544 5544 5543 5543 5542 5542 5542 5543 5544 5544 5545 5546 5548 5549 5550 5552 5554
5588 5586 5583 5580 5578 5578 5575 5571 5569 5567 5564 5562 5559 5557 5555 5553 5550 5549 5546 5544 5542 5541 5540 5539 5538 5538 5537 5536 5536 5536 5535 5534 5534 5534 5535 5536 5536 5537 5538 5539 5540 5541 5542 5544
5582 5580 5577 5575 5574 5571 5567 5565 5562 5560 5557 5555 5552 5550 5548 5545 5543 5541 5539 5537 5535 5533 5532 5531 5531 5530 5529 5528 5528 5528 5527 5527 5526 5527 5527 5527 5528 5529 5529 5530 5531 5532 5533 5535
5575 5573 5570 5568 5567 5564 5561 5558 5555 5553 5550 5548 5545 5543 5540 5538 5536 5533 5531 5529 5527 5526 5524 5523 5523 5522 5521 5520 5520 5519 5519 5519 5519 5519 5519 5519 5520 5520 5521 5521 5522 5523 5524 5526
5568 5565 5563 5561 5560 5557 5555 5551 5549 5546 5543 5541 5539 5536 5533 5531 5528 5526 5523 5522 5520 5518 5516 5515 5515 5514 5513 5512 5511 5510 5510 5510 5510 5510 5510 5511 5511 5511 5512 5512 5513 5514 5515 5517
5561 5558 5555 5554 5552 5549 5547 5544 5541 5539 5536 5534 5532 5529 5526 5523 5521 5519 5516 5514 5512 5510 5508 5507 5506 5505 5505 5504 5503 5502 5501 5501 5501 5501 5501 5502 5502 5502 5503 5503 5504 5505 5507 5508